Weather History for Maple Lake, MN

Change the Weather History Date:

Tuesday, January 14, 2014

  Actual Average (KSTC) Record (KSTC)
Temperature  
Mean Temperature 16 °F 11 °F  
Max Temperature 26 °F 21 °F 44 °F (1944)
Min Temperature 6 °F 1 °F -30 °F (1982)
Degree Days  
Heating Degree Days 49 54  
Month to date heating degree days 749  
Since 1 July heating degree days 4196  
Cooling Degree Days 0 0  
Month to date cooling degree days 0  
Year to date cooling degree days 0  
Moisture  
Dew Point 14 °F    
Average Humidity 83    
Maximum Humidity 99    
Minimum Humidity 65    
Precipitation  
Precipitation 0.03 in 0.02 in 0.57 in (1952)
Month to date precipitation 0.33  
Year to date precipitation 0.33  
Snow  
Snow 0.00 in 0.30 in 3.00 in (1952)
Month to date snowfall 4.2  
Since 1 July snowfall 22.8  
Snow Depth -    
Sea Level Pressure  
Sea Level Pressure 29.86 in    
Wind  
Wind Speed 10 mph (NNW)    
Max Wind Speed 18 mph    
Max Gust Speed 24 mph    
Visibility 7 miles    
Events Snow    
T = Trace of Precipitation, MM = Missing Value Source: NWS Daily Summary

Daily Weather History Graph

Daily Weather History Graph

Search for Another Location

Airport:

Trip Planner

Search our weather history database for the weather conditions in past years. The results will help you decide how hot, cold, wet, or windy it might be!

Date:

Astronomy

Jan. 14, 2014 Rise Set
Actual Time 7:51 AM CST 4:58 PM CST
Civil Twilight 7:18 AM CST 5:31 PM CST
Nautical Twilight 6:42 AM CST 6:08 PM CST
Astronomical Twilight 6:06 AM CST 6:43 PM CST
Moon 4:06 PM CST (1/14) 6:25 AM CST (1/14)
Length of Visible Light 10h 12m
Length of Day
9h 06m
Waxing Gibbous, 98% of the Moon is Illuminated
Jan 14
Waxing Gibbous
Jan 15
Full
Jan 23
Last Quarter
Jan 30
New
Feb 6
First Quarter

Hourly Weather History & Observations

Time (CST) Temp. Windchill Dew Point Humidity Pressure Visibility Wind Dir Wind Speed Gust Speed Precip Events Conditions
12:17 AM 26.4 °F 22.4 °F 25.2 °F 95% 29.50 in 7.0 mi East 3.5 mph - N/A   Overcast
12:37 AM 26.6 °F 21.2 °F 25.3 °F 95% 29.49 in 7.0 mi East 4.6 mph - N/A   Overcast
12:56 AM 26.8 °F 21.4 °F 25.7 °F 96% 29.49 in 2.5 mi East 4.6 mph - N/A Snow Light Snow
1:17 AM 26.6 °F 21.2 °F 25.7 °F 96% 29.49 in 1.2 mi ENE 4.6 mph - N/A Snow Light Snow
1:37 AM 26.4 °F 19.8 °F 25.7 °F 97% 29.48 in 1.2 mi ENE 5.8 mph - N/A Snow Light Snow
1:57 AM 26.2 °F 20.7 °F 25.5 °F 97% 29.48 in 1.0 mi ENE 4.6 mph - N/A Snow Snow
2:17 AM 26.1 °F 20.5 °F 25.3 °F 97% 29.48 in 1.8 mi NE 4.6 mph - 0.01 in Snow Light Snow
2:36 AM 26.1 °F - 25.3 °F 97% 29.50 in 0.8 mi Calm Calm - 0.01 in Snow Snow
2:57 AM 25.7 °F 19.0 °F 25.3 °F 99% 29.51 in 1.0 mi NNW 5.8 mph - 0.01 in Snow Snow
3:17 AM 25.5 °F 16.9 °F 24.8 °F 97% 29.52 in 0.8 mi North 8.1 mph - 0.01 in Snow Snow
3:37 AM 24.8 °F 15.3 °F 23.9 °F 96% 29.52 in 1.5 mi North 9.2 mph - 0.02 in Snow Light Snow
3:57 AM 24.4 °F 13.0 °F 23.7 °F 97% 29.53 in 1.8 mi North 12.7 mph 17.3 mph 0.02 in Snow Light Snow
4:17 AM 23.4 °F 12.2 °F 22.1 °F 95% 29.56 in 2.5 mi North 11.5 mph - N/A Snow Light Snow
4:36 AM 23.0 °F 10.6 °F 21.4 °F 94% 29.57 in 2.0 mi North 13.8 mph 18.4 mph N/A Snow Light Snow
4:57 AM 22.8 °F 11.5 °F 21.6 °F 95% 29.59 in 1.8 mi North 11.5 mph - N/A Snow Light Snow
5:17 AM 22.8 °F 8.9 °F 21.2 °F 93% 29.61 in 5.0 mi NNW 17.3 mph 21.9 mph N/A Snow Light Snow
5:36 AM 22.6 °F 10.7 °F 21.0 °F 93% 29.63 in 2.5 mi NNW 12.7 mph - N/A Snow Light Snow
5:57 AM 22.3 °F 10.2 °F 20.5 °F 93% 29.65 in 3.0 mi NNW 12.7 mph 19.6 mph N/A Snow Light Snow
6:16 AM 22.1 °F 9.5 °F 20.3 °F 93% 29.67 in 2.5 mi NNW 13.8 mph 20.7 mph N/A Snow Light Snow
6:36 AM 22.1 °F 9.5 °F 20.5 °F 93% 29.69 in 2.0 mi NW 13.8 mph 20.7 mph N/A Snow Light Snow
6:57 AM 22.1 °F 10.0 °F 20.3 °F 93% 29.70 in 1.8 mi NNW 12.7 mph 19.6 mph N/A Snow Light Snow
7:17 AM 21.9 °F 8.2 °F 20.1 °F 93% 29.72 in 2.0 mi NNW 16.1 mph 19.6 mph N/A Snow Light Snow
7:36 AM 21.6 °F 9.9 °F 19.4 °F 91% 29.73 in 3.0 mi NNW 11.5 mph - N/A Snow Light Snow
7:57 AM 21.2 °F 8.3 °F 18.9 °F 91% 29.75 in 4.0 mi NNW 13.8 mph - N/A Snow Light Snow
8:16 AM 20.8 °F 5.9 °F 18.3 °F 90% 29.76 in 1.8 mi NNW 18.4 mph 24.2 mph N/A Snow Light Snow
8:37 AM 20.1 °F 6.4 °F 17.1 °F 88% 29.78 in 2.5 mi NNW 15.0 mph 23.0 mph N/A Snow Light Snow
8:57 AM 20.1 °F 8.1 °F 17.1 °F 88% 29.79 in 4.0 mi NNW 11.5 mph 17.3 mph N/A   Overcast
9:17 AM 19.9 °F 7.3 °F 16.5 °F 87% 29.81 in 5.0 mi NNW 12.7 mph - N/A   Overcast
9:36 AM 20.1 °F 8.1 °F 16.9 °F 87% 29.82 in 3.0 mi NW 11.5 mph 16.1 mph N/A Snow Light Snow
9:57 AM 19.9 °F 6.2 °F 16.3 °F 86% 29.85 in 1.8 mi NNW 15.0 mph - N/A Snow Light Snow
10:17 AM 19.6 °F 5.2 °F 14.5 °F 81% 29.86 in 5.0 mi NNW 16.1 mph 23.0 mph N/A   Haze
10:37 AM 19.4 °F 4.1 °F 13.8 °F 79% 29.87 in 5.0 mi NNW 18.4 mph 23.0 mph N/A   Haze
10:56 AM 19.8 °F 5.0 °F 13.3 °F 76% 29.89 in 10.0 mi NNW 17.3 mph 24.2 mph N/A   Overcast
11:17 AM 19.8 °F 5.4 °F 14.0 °F 78% 29.89 in 4.0 mi NW 16.1 mph 23.0 mph N/A Snow Light Snow
11:37 AM 19.8 °F 7.1 °F 13.5 °F 77% 29.89 in 5.0 mi NW 12.7 mph 17.3 mph N/A   Haze
11:56 AM 19.4 °F 6.0 °F 12.7 °F 75% 29.90 in 7.0 mi NW 13.8 mph 21.9 mph N/A   Mostly Cloudy
12:17 PM 19.4 °F 6.6 °F 12.6 °F 75% 29.91 in 10.0 mi NW 12.7 mph 19.6 mph N/A   Clear
12:37 PM 18.9 °F 3.8 °F 11.3 °F 72% 29.91 in 10.0 mi NNW 17.3 mph 21.9 mph N/A   Clear
12:56 PM 18.9 °F 5.3 °F 10.9 °F 71% 29.92 in 10.0 mi NNW 13.8 mph 24.2 mph N/A   Clear
1:17 PM 19.4 °F 4.1 °F 10.9 °F 70% 29.93 in 10.0 mi NW 18.4 mph 23.0 mph N/A   Clear
1:36 PM 19.6 °F 5.7 °F 10.6 °F 68% 29.94 in 10.0 mi NW 15.0 mph 20.7 mph N/A   Clear
1:57 PM 19.8 °F 7.7 °F 10.4 °F 67% 29.95 in 10.0 mi NW 11.5 mph 20.7 mph N/A   Clear
2:16 PM 19.4 °F 6.0 °F 10.2 °F 68% 29.95 in 10.0 mi NW 13.8 mph 17.3 mph N/A   Clear
2:37 PM 20.1 °F 5.9 °F 10.0 °F 65% 29.97 in 10.0 mi NW 16.1 mph 19.6 mph N/A   Clear
2:57 PM 19.9 °F 7.3 °F 10.4 °F 67% 29.97 in 10.0 mi NW 12.7 mph 19.6 mph N/A   Clear
3:16 PM 19.9 °F 6.7 °F 10.6 °F 67% 29.99 in 10.0 mi NW 13.8 mph - N/A   Clear
3:37 PM 19.4 °F 7.2 °F 9.9 °F 66% 30.00 in 10.0 mi NW 11.5 mph 19.6 mph N/A   Scattered Clouds
3:57 PM 18.5 °F 4.9 °F 9.5 °F 68% 30.02 in 10.0 mi NW 13.8 mph 20.7 mph N/A   Scattered Clouds
4:16 PM 18.5 °F 6.1 °F 9.5 °F 68% 30.02 in 10.0 mi NW 11.5 mph - N/A   Scattered Clouds
4:37 PM 18.0 °F 6.9 °F 9.5 °F 70% 30.03 in 10.0 mi NW 9.2 mph - N/A   Overcast
4:56 PM 16.7 °F 3.8 °F 9.5 °F 73% 30.04 in 10.0 mi NW 11.5 mph - N/A   Scattered Clouds
5:17 PM 16.0 °F 5.3 °F 9.1 °F 74% 30.05 in 10.0 mi WNW 8.1 mph - N/A   Scattered Clouds
5:37 PM 15.1 °F 2.5 °F 9.3 °F 78% 30.05 in 10.0 mi NW 10.4 mph - N/A   Scattered Clouds
5:57 PM 14.5 °F 2.7 °F 8.6 °F 77% 30.06 in 10.0 mi NW 9.2 mph - N/A   Scattered Clouds
6:17 PM 13.5 °F 0.5 °F 8.2 °F 80% 30.07 in 10.0 mi WNW 10.4 mph 17.3 mph N/A   Clear
6:37 PM 12.9 °F -2.2 °F 7.5 °F 79% 30.08 in 10.0 mi NW 13.8 mph 18.4 mph N/A   Clear
6:57 PM 12.0 °F -2.7 °F 6.6 °F 79% 30.09 in 10.0 mi NW 12.7 mph 21.9 mph N/A   Clear
7:17 PM 11.1 °F -2.4 °F 5.4 °F 78% 30.10 in 10.0 mi NW 10.4 mph 19.6 mph N/A   Clear
7:36 PM 10.4 °F -3.3 °F 5.0 °F 79% 30.10 in 10.0 mi NW 10.4 mph 16.1 mph N/A   Clear
7:57 PM 10.0 °F -4.5 °F 4.6 °F 79% 30.10 in 10.0 mi NW 11.5 mph - N/A   Clear
8:17 PM 9.5 °F -3.5 °F 4.1 °F 79% 30.10 in 10.0 mi NW 9.2 mph - N/A   Clear
8:37 PM 9.1 °F -4.9 °F 3.9 °F 79% 30.11 in 10.0 mi NW 10.4 mph - N/A   Clear
8:56 PM 9.3 °F -6.1 °F 3.6 °F 77% 30.12 in 10.0 mi NW 12.7 mph 17.3 mph N/A   Clear
9:17 PM 8.6 °F -5.5 °F 3.2 °F 79% 30.12 in 10.0 mi NW 10.4 mph - N/A   Clear
9:37 PM 8.4 °F -4.9 °F 3.2 °F 79% 30.13 in 10.0 mi NW 9.2 mph - N/A   Clear
9:57 PM 7.9 °F -6.4 °F 2.8 °F 80% 30.13 in 10.0 mi NW 10.4 mph - N/A   Clear
10:16 PM 7.5 °F -5.0 °F 2.7 °F 81% 30.14 in 10.0 mi NW 8.1 mph - N/A   Clear
10:37 PM 7.3 °F -7.1 °F 2.3 °F 80% 30.14 in 10.0 mi NW 10.4 mph 16.1 mph N/A   Clear
10:57 PM 6.8 °F -6.9 °F 2.1 °F 81% 30.14 in 10.0 mi NW 9.2 mph - N/A   Clear
11:17 PM 6.8 °F -6.9 °F 1.9 °F 80% 30.14 in 10.0 mi NW 9.2 mph - N/A   Clear
11:37 PM 6.6 °F -9.5 °F 1.8 °F 80% 30.14 in 10.0 mi NW 12.7 mph 17.3 mph N/A   Clear
11:57 PM 6.1 °F -9.5 °F 1.4 °F 81% 30.14 in 10.0 mi NW 11.5 mph 19.6 mph N/A   Clear